TimeCST,TemperatureF,Dew PointF,Humidity,Sea Level PressureIn,VisibilityMPH,Wind Direction,Wind SpeedMPH,Gust SpeedMPH,PrecipitationIn,Events,Conditions,WindDirDegrees,DateUTC
12:15 AM,10.4,-0.4,62,30.32,10.0,WNW,9.2,-,N/A,,Mostly Cloudy,300,2013-01-23 06:15:00
12:35 AM,10.4,-0.4,62,30.32,10.0,WNW,12.7,-,N/A,,Mostly Cloudy,290,2013-01-23 06:35:00
12:55 AM,10.4,1.4,67,30.32,10.0,WNW,12.7,-,N/A,,Overcast,290,2013-01-23 06:55:00
1:15 AM,10.4,-0.4,62,30.32,10.0,West,11.5,-,N/A,,Overcast,280,2013-01-23 07:15:00
1:35 AM,10.4,1.4,67,30.31,10.0,West,9.2,-,N/A,,Overcast,280,2013-01-23 07:35:00
1:55 AM,10.4,1.4,67,30.31,10.0,West,11.5,-,N/A,,Overcast,280,2013-01-23 07:55:00
2:15 AM,10.4,1.4,67,30.32,10.0,West,9.2,-,N/A,,Mostly Cloudy,280,2013-01-23 08:15:00
2:35 AM,10.4,1.4,67,30.31,10.0,West,8.1,-,N/A,,Mostly Cloudy,280,2013-01-23 08:35:00
2:55 AM,10.4,1.4,67,30.30,10.0,West,5.8,-,N/A,,Overcast,270,2013-01-23 08:55:00
3:15 AM,10.4,1.4,67,30.30,10.0,West,6.9,-,N/A,,Overcast,270,2013-01-23 09:15:00
3:35 AM,12.2,1.4,62,30.30,10.0,West,8.1,-,N/A,,Overcast,270,2013-01-23 09:35:00
3:55 AM,12.2,1.4,62,30.30,10.0,West,9.2,-,N/A,,Overcast,280,2013-01-23 09:55:00
4:15 AM,12.2,1.4,62,30.29,10.0,West,8.1,-,N/A,,Overcast,280,2013-01-23 10:15:00
4:35 AM,12.2,1.4,62,30.29,10.0,West,9.2,-,N/A,,Overcast,270,2013-01-23 10:35:00
4:55 AM,12.2,1.4,62,30.29,10.0,West,8.1,-,N/A,,Overcast,270,2013-01-23 10:55:00
5:15 AM,12.2,1.4,62,30.29,10.0,West,8.1,-,N/A,,Overcast,260,2013-01-23 11:15:00
5:35 AM,12.2,1.4,62,30.29,10.0,West,10.4,-,N/A,,Overcast,260,2013-01-23 11:35:00
5:55 AM,12.2,1.4,62,30.29,10.0,West,8.1,-,N/A,,Overcast,270,2013-01-23 11:55:00
6:15 AM,12.2,1.4,62,30.29,10.0,West,8.1,-,N/A,,Overcast,270,2013-01-23 12:15:00
6:35 AM,12.2,1.4,62,30.29,10.0,West,8.1,-,N/A,,Overcast,270,2013-01-23 12:35:00
6:55 AM,12.2,3.2,67,30.28,10.0,WSW,6.9,-,N/A,,Overcast,250,2013-01-23 12:55:00
7:15 AM,12.2,3.2,67,30.28,10.0,WSW,6.9,-,N/A,,Overcast,240,2013-01-23 13:15:00
7:35 AM,12.2,1.4,62,30.28,10.0,WSW,6.9,-,N/A,,Overcast,240,2013-01-23 13:35:00
7:55 AM,14.0,1.4,57,30.28,10.0,WSW,6.9,-,N/A,,Overcast,240,2013-01-23 13:55:00
8:15 AM,14.0,1.4,57,30.27,10.0,WSW,9.2,-,N/A,,Overcast,240,2013-01-23 14:15:00
8:35 AM,14.0,1.4,57,30.28,10.0,WSW,10.4,-,N/A,,Overcast,240,2013-01-23 14:35:00
8:55 AM,15.8,1.4,53,30.27,10.0,WSW,11.5,-,N/A,,Overcast,240,2013-01-23 14:55:00
9:15 AM,15.8,1.4,53,30.27,10.0,WSW,10.4,-,N/A,,Overcast,250,2013-01-23 15:15:00
9:35 AM,15.8,1.4,53,30.27,10.0,SW,11.5,-,N/A,,Overcast,230,2013-01-23 15:35:00
9:55 AM,15.8,1.4,53,30.27,10.0,WSW,11.5,-,N/A,,Overcast,250,2013-01-23 15:55:00
10:15 AM,17.6,1.4,49,30.26,10.0,WSW,10.4,16.1,N/A,,Overcast,250,2013-01-23 16:15:00
10:35 AM,17.6,1.4,49,30.27,10.0,WSW,12.7,-,N/A,,Overcast,240,2013-01-23 16:35:00
10:55 AM,17.6,3.2,53,30.25,10.0,WSW,12.7,-,N/A,,Mostly Cloudy,240,2013-01-23 16:55:00
11:15 AM,17.6,3.2,53,30.23,10.0,WSW,10.4,-,N/A,,Partly Cloudy,250,2013-01-23 17:15:00
11:35 AM,19.4,5.0,54,30.22,10.0,WSW,13.8,-,N/A,,Partly Cloudy,250,2013-01-23 17:35:00
11:55 AM,19.4,5.0,54,30.21,10.0,West,13.8,-,N/A,,Mostly Cloudy,260,2013-01-23 17:55:00
12:15 PM,19.4,3.2,49,30.20,10.0,West,12.7,-,N/A,,Overcast,270,2013-01-23 18:15:00
12:35 PM,19.4,3.2,49,30.19,10.0,West,13.8,-,N/A,,Overcast,270,2013-01-23 18:35:00
12:55 PM,19.4,3.2,49,30.17,10.0,West,13.8,-,N/A,,Mostly Cloudy,260,2013-01-23 18:55:00
1:15 PM,19.4,5.0,54,30.16,10.0,SW,11.5,-,N/A,,Mostly Cloudy,230,2013-01-23 19:15:00
1:35 PM,19.4,6.8,58,30.15,10.0,WSW,11.5,-,N/A,,Mostly Cloudy,240,2013-01-23 19:35:00
1:55 PM,19.4,6.8,58,30.15,10.0,West,11.5,-,N/A,,Mostly Cloudy,270,2013-01-23 19:55:00
2:15 PM,19.4,6.8,58,30.14,10.0,WSW,8.1,-,N/A,,Overcast,250,2013-01-23 20:15:00
2:35 PM,19.4,6.8,58,30.13,10.0,WSW,9.2,-,N/A,,Scattered Clouds,240,2013-01-23 20:35:00
2:55 PM,19.4,6.8,58,30.13,10.0,WSW,13.8,-,N/A,,Mostly Cloudy,240,2013-01-23 20:55:00
3:15 PM,19.4,8.6,63,30.14,10.0,WSW,13.8,-,N/A,,Overcast,250,2013-01-23 21:15:00
3:35 PM,19.4,10.4,68,30.13,10.0,West,10.4,-,N/A,,Overcast,260,2013-01-23 21:35:00
3:55 PM,19.4,10.4,68,30.13,10.0,West,9.2,-,N/A,,Overcast,270,2013-01-23 21:55:00
4:15 PM,19.4,10.4,68,30.13,9.0,WSW,8.1,-,N/A,,Overcast,250,2013-01-23 22:15:00
4:35 PM,19.4,10.4,68,30.12,10.0,West,5.8,-,N/A,,Overcast,260,2013-01-23 22:35:00
4:55 PM,19.4,10.4,68,30.11,10.0,WSW,4.6,-,N/A,,Overcast,250,2013-01-23 22:55:00
5:15 PM,19.4,12.2,74,30.11,10.0,WSW,3.5,-,N/A,,Overcast,240,2013-01-23 23:15:00
5:35 PM,19.4,12.2,74,30.11,10.0,Calm,Calm,-,N/A,,Scattered Clouds,0,2013-01-23 23:35:00
5:55 PM,19.4,10.4,68,30.11,10.0,Calm,Calm,-,N/A,,Clear,0,2013-01-23 23:55:00
6:15 PM,19.4,12.2,74,30.10,10.0,Calm,Calm,-,N/A,,Clear,0,2013-01-24 00:15:00
6:35 PM,19.4,12.2,74,30.10,10.0,WSW,3.5,-,N/A,,Scattered Clouds,240,2013-01-24 00:35:00
6:55 PM,19.4,12.2,74,30.09,10.0,SSW,3.5,-,N/A,,Overcast,210,2013-01-24 00:55:00
7:15 PM,19.4,12.2,74,30.09,10.0,SW,3.5,-,N/A,,Overcast,220,2013-01-24 01:15:00
7:35 PM,19.4,14.0,80,30.09,10.0,Calm,Calm,-,N/A,,Overcast,0,2013-01-24 01:35:00
7:55 PM,19.4,12.2,74,30.08,9.0,SW,5.8,-,N/A,,Overcast,230,2013-01-24 01:55:00
8:15 PM,19.4,12.2,74,30.08,10.0,SW,8.1,-,N/A,,Mostly Cloudy,230,2013-01-24 02:15:00
8:35 PM,21.2,12.2,68,30.10,10.0,West,8.1,-,N/A,,Overcast,280,2013-01-24 02:35:00
8:55 PM,21.2,12.2,68,30.10,10.0,WNW,10.4,-,N/A,,Mostly Cloudy,290,2013-01-24 02:55:00
9:15 PM,21.2,14.0,74,30.11,10.0,NW,19.6,-,N/A,,Mostly Cloudy,320,2013-01-24 03:15:00
9:35 PM,21.2,10.4,63,30.12,10.0,NW,19.6,27.6,N/A,,Overcast,320,2013-01-24 03:35:00
9:55 PM,19.4,8.6,63,30.12,10.0,NNW,16.1,33.4,N/A,,Mostly Cloudy,330,2013-01-24 03:55:00
10:15 PM,19.4,6.8,58,30.13,10.0,NNW,17.3,24.2,N/A,,Partly Cloudy,330,2013-01-24 04:15:00
10:35 PM,19.4,6.8,58,30.14,10.0,NNW,18.4,-,N/A,,Clear,330,2013-01-24 04:35:00
10:55 PM,17.6,6.8,63,30.14,10.0,NW,17.3,21.9,N/A,,Clear,320,2013-01-24 04:55:00
11:15 PM,17.6,6.8,63,30.16,10.0,NW,16.1,21.9,N/A,,Clear,320,2013-01-24 05:15:00
11:35 PM,17.6,8.6,68,30.17,10.0,NW,16.1,-,N/A,,Clear,320,2013-01-24 05:35:00
11:55 PM,17.6,10.4,73,30.18,10.0,NW,18.4,-,N/A,,Clear,320,2013-01-24 05:55:00